Theta_e
329 327 328 323 325 326 321 319 302 308 306 300 299 301 298 303 303 302 303 304 306 309 312 311 320 317 311 310 311 311 313 311 310 304 306 325 333 338 341 342 345 345 345 346 347 349 350 349 349 349 348 348 347 346 345 344 343 343 342 342 341 339 337 337 337 343 342 345 345 345 345 344 342 340 339 338 338 338 337 338 341 343 342 342 341 341 339 337 339 340 339 338 338 337 336 337 339
327 327 327 327 323 319 313 313 306 302 302 298 300 301 301 302 302 303 304 306 307 307 308 316 320 317 312 313 311 313 313 317 314 318 326 330 335 338 341 342 344 342 345 346 347 348 348 349 348 349 348 348 347 347 345 344 343 343 342 341 340 340 339 339 340 342 343 345 345 346 346 344 341 339 339 338 338 339 338 338 339 341 342 340 340 342 341 340 338 337 338 337 337 338 338 337 338
325 327 324 324 321 319 315 313 301 301 298 295 299 301 301 301 303 305 306 306 307 308 312 315 316 315 311 310 310 309 311 320 320 326 329 333 330 334 339 342 343 345 344 346 347 348 348 348 346 348 348 348 347 345 345 345 344 343 342 341 340 340 340 341 341 341 343 347 346 347 345 342 340 339 339 338 337 337 337 339 340 340 342 342 342 341 342 342 340 340 339 338 339 338 338 338 339
328 327 327 323 314 318 309 307 304 301 297 298 298 302 302 303 304 305 305 308 310 311 312 313 314 311 310 307 310 311 311 316 323 327 325 330 334 337 339 341 344 344 346 347 348 347 349 347 346 347 348 347 346 346 346 345 344 344 343 341 341 340 341 340 342 344 344 345 344 346 346 343 341 339 338 337 337 339 338 340 343 342 342 342 342 343 342 342 341 340 340 339 339 338 339 339 339
327 323 327 322 319 309 310 305 303 302 297 299 297 301 302 304 304 304 305 310 309 308 310 313 313 315 315 313 313 311 314 325 324 329 330 334 339 339 340 343 343 343 343 345 346 347 349 344 346 347 347 346 347 347 345 344 344 344 344 343 341 340 339 340 339 343 346 346 345 346 344 341 340 339 338 338 338 337 337 338 342 341 340 339 339 339 339 339 339 339 339 339 338 338 338 338 338
324 321 322 322 311 313 309 303 301 300 302 302 300 301 302 304 304 306 307 309 308 308 307 312 310 312 311 317 317 314 324 317 327 327 332 333 338 340 340 344 342 341 342 345 346 348 349 343 346 346 347 347 348 346 345 344 344 344 344 343 341 341 340 340 340 339 344 345 345 345 344 341 339 339 338 337 336 337 337 337 337 338 338 339 339 340 340 338 337 337 337 338 339 338 338 337 337
322 319 317 315 311 314 304 302 301 301 301 301 301 302 302 303 305 308 307 306 307 305 304 309 308 312 309 315 317 323 327 327 328 330 335 337 340 339 341 341 342 341 342 343 346 348 349 343 347 348 348 347 347 346 346 345 344 344 343 344 342 341 341 341 341 340 344 344 345 344 344 341 339 337 337 337 336 335 338 338 337 339 338 338 340 340 340 340 339 339 338 338 339 338 338 338 338
321 316 315 309 305 308 302 301 301 302 300 299 301 301 302 303 305 308 307 306 305 305 304 305 310 310 308 314 313 323 326 329 332 334 336 337 339 339 341 341 340 340 342 344 346 347 347 341 346 347 347 347 347 346 346 345 345 344 343 344 342 342 342 342 341 341 341 343 342 342 342 341 339 336 336 336 336 336 336 336 336 339 339 338 338 337 338 338 338 340 339 339 339 338 337 337 337
318 314 311 311 303 304 301 300 301 300 300 299 301 301 304 305 305 308 306 305 304 304 306 308 308 305 308 311 314 322 326 329 331 331 336 338 338 339 340 340 339 340 342 343 345 348 349 341 344 346 346 347 347 347 346 345 344 344 344 343 343 342 342 341 341 340 339 339 341 343 342 341 339 337 335 334 335 336 335 336 336 336 336 337 337 337 337 337 337 337 336 337 338 337 337 337 337
314 313 306 308 307 300 300 300 300 300 301 302 301 303 303 303 304 306 307 304 305 304 306 309 306 303 310 308 312 319 326 329 331 332 337 338 339 339 339 341 342 341 342 343 344 346 347 346 340 342 344 346 347 347 346 344 344 344 344 344 343 343 342 341 340 340 340 339 341 342 341 339 337 336 335 335 336 336 335 334 335 335 335 336 336 336 336 336 336 337 337 338 337 337 337 337 337
308 311 313 306 301 299 299 299 300 301 300 302 302 302 303 304 305 306 307 305 303 305 305 305 305 306 310 309 316 322 327 330 332 331 337 338 340 339 339 341 342 343 342 344 345 346 347 349 342 339 342 343 345 346 346 345 344 344 345 344 343 343 342 341 341 341 340 339 339 338 338 337 336 335 335 335 336 335 336 335 335 335 336 336 336 336 336 336 336 336 337 336 337 336 336 336 337
306 308 310 302 300 300 300 300 299 301 302 303 303 303 304 304 305 304 304 303 303 303 307 306 306 312 308 308 313 321 326 330 334 335 337 339 338 339 339 340 342 342 343 343 345 345 347 348 348 343 338 338 342 343 344 344 345 345 345 344 343 343 342 342 341 341 340 339 339 338 337 336 335 335 335 334 336 337 334 334 335 334 336 336 335 336 336 337 336 336 336 336 336 336 336 336 336
309 310 305 302 300 301 300 298 300 299 302 303 304 303 304 303 304 306 305 304 304 304 305 309 311 311 304 306 315 320 325 331 335 336 338 338 338 339 339 340 341 343 342 344 343 345 347 347 347 348 343 333 335 337 339 340 343 345 345 345 344 343 343 342 341 340 339 339 338 337 337 339 338 335 334 334 338 337 334 337 337 334 336 336 336 337 337 336 337 336 335 335 336 336 336 336 336
310 311 308 301 298 300 300 301 299 299 300 303 303 302 303 304 305 305 306 303 304 304 304 305 310 310 308 308 313 316 325 333 335 336 338 338 338 338 339 339 341 340 343 343 342 343 345 346 346 348 348 348 349 340 333 338 340 343 343 343 343 343 343 343 342 341 340 340 340 339 338 339 338 337 336 337 338 336 337 338 338 336 336 336 336 336 336 335 335 334 335 335 335 336 335 335 335
312 308 307 303 299 300 299 299 300 299 299 304 301 302 301 303 302 303 306 304 304 304 305 307 311 307 303 306 309 315 326 332 334 336 337 338 337 337 338 339 339 340 340 341 341 343 343 345 346 347 347 347 347 348 348 345 334 339 340 341 341 341 341 341 341 339 339 339 337 336 335 333 332 334 335 336 334 335 334 332 337 337 336 337 336 335 334 334 333 333 334 334 334 334 334 334 334
313 311 307 302 299 300 300 299 296 300 300 304 299 300 303 302 301 303 304 303 304 305 305 306 307 306 305 306 313 319 330 331 333 335 336 335 336 337 337 338 338 338 339 339 339 342 343 344 346 346 347 346 346 347 346 347 336 333 337 337 338 339 338 338 336 335 333 333 332 331 329 333 330 333 326 332 330 333 329 331 333 336 336 335 335 334 333 333 333 333 333 333 334 334 333 332 331
310 314 302 301 298 299 300 300 299 298 301 301 298 301 303 302 301 301 301 302 304 304 304 308 307 313 308 310 315 320 329 331 331 334 334 333 333 333 335 336 336 337 338 339 339 340 343 343 344 345 346 346 346 346 346 346 345 331 333 332 333 335 336 334 332 326 324 324 327 324 327 336 337 336 335 334 326 336 324 327 332 336 336 334 334 333 333 333 332 333 332 332 332 330 327 326 327
312 304 302 300 301 300 303 301 302 302 302 301 299 303 305 301 301 302 303 303 303 303 304 306 306 310 315 318 318 321 325 328 331 331 331 331 333 332 332 333 334 334 335 336 339 339 340 342 344 344 344 345 345 346 346 346 347 340 345 346 345 339 332 329 336 341 336 340 325 333 335 335 336 337 336 333 334 334 333 325 329 334 336 334 334 333 332 331 331 331 331 330 329 328 325 331 327
307 304 303 300 302 304 304 303 303 302 302 302 302 301 304 304 304 302 303 302 303 303 304 304 305 310 315 318 318 322 323 328 329 331 330 330 331 330 331 333 333 333 333 335 337 338 339 341 342 342 343 345 345 344 345 345 344 345 346 344 344 335 339 341 340 340 341 339 339 338 334 333 335 335 336 333 335 325 334 325 328 330 332 331 333 333 332 331 331 331 329 326 325 324 330 332 332
303 304 300 302 306 302 302 301 302 301 302 301 300 300 301 301 302 303 302 302 301 302 303 304 304 305 310 318 317 323 324 327 330 331 330 331 332 331 332 332 332 333 334 335 336 338 339 339 341 342 342 344 344 343 344 344 344 344 344 344 343 342 342 340 340 339 339 339 340 338 334 335 335 335 327 326 330 334 333 323 324 326 327 327 328 331 331 330 327 325 323 321 325 327 331 330 330
304 303 301 303 304 303 302 300 300 300 300 302 301 299 300 300 302 304 303 301 302 304 306 305 305 306 309 318 319 323 324 326 328 331 331 331 332 333 333 334 334 335 336 336 337 336 338 339 340 341 342 343 343 342 342 343 344 343 343 343 342 342 341 340 339 338 338 338 338 337 337 336 335 334 334 334 334 334 334 333 333 333 333 334 326 332 331 330 328 328 327 324 329 330 329 329 330
305 302 301 303 301 303 300 300 298 298 297 301 300 300 302 301 301 302 303 301 301 304 306 307 308 308 312 317 319 322 323 325 328 330 330 331 331 331 333 334 336 336 337 335 336 337 337 338 339 340 341 342 342 342 342 342 342 342 342 342 342 341 341 340 339 337 337 337 337 337 336 335 334 333 335 335 334 334 332 332 332 332 331 332 332 330 329 329 329 327 327 328 327 328 329 329 329
301 300 299 300 301 302 299 299 297 298 300 300 300 302 301 301 301 300 302 303 304 304 302 303 303 304 314 320 320 320 323 324 326 328 329 330 330 332 332 333 333 333 335 336 337 338 338 339 339 340 340 341 341 342 342 342 341 342 341 341 341 340 341 339 338 337 336 336 336 336 335 333 333 331 332 334 333 334 333 333 332 332 331 330 331 329 329 329 327 326 326 326 326 327 327 327 327
303 301 299 299 299 301 297 299 295 297 300 300 301 299 301 300 300 299 300 305 305 301 299 302 301 310 317 318 319 322 323 324 325 328 330 331 331 331 333 332 333 334 335 335 336 337 338 339 340 340 339 339 340 341 341 341 341 341 342 341 340 339 339 338 337 337 337 336 336 335 333 334 333 331 331 332 332 333 332 332 333 331 331 331 331 330 328 327 325 325 325 325 325 326 326 326 327
301 300 299 297 297 297 296 296 296 296 298 297 298 300 299 299 300 297 301 305 305 302 302 306 311 314 316 319 319 322 323 324 325 327 328 330 332 332 332 333 333 333 333 334 335 336 338 338 339 339 339 339 339 340 340 341 341 340 341 340 339 337 339 339 338 338 336 335 336 336 335 333 332 332 331 331 331 331 332 331 330 330 330 330 329 328 328 326 325 324 324 325 326 325 325 326 326
301 299 299 297 298 297 296 297 296 297 298 298 300 300 299 298 297 299 304 304 300 299 302 310 313 313 316 318 319 321 322 323 325 324 326 328 328 328 329 330 331 331 332 333 335 336 337 338 338 338 339 339 339 339 340 340 341 340 340 340 340 339 339 339 339 337 336 335 335 335 335 334 333 332 331 331 330 330 330 330 330 330 328 328 327 327 326 325 324 323 324 324 324 325 325 325 325
300 298 300 299 297 298 297 299 298 297 299 297 301 299 298 297 297 301 301 300 298 302 304 309 311 310 316 318 319 320 321 322 324 325 325 326 326 326 327 328 329 330 333 333 334 334 336 337 338 338 339 339 340 339 339 339 340 339 340 341 341 339 339 339 338 337 336 335 335 335 334 334 334 332 331 331 330 330 329 329 328 329 328 326 327 327 325 325 324 323 324 323 324 324 324 324 324
300 299 299 298 298 298 298 298 297 299 299 297 301 298 298 298 298 301 302 299 300 302 304 307 309 310 313 317 318 319 320 322 324 323 323 323 323 325 326 327 328 330 332 333 335 336 335 335 337 338 339 339 338 338 339 339 339 339 339 339 340 340 340 340 339 338 334 335 335 335 334 334 333 332 332 332 330 329 328 327 328 327 326 326 326 325 323 323 323 323 322 322 323 323 322 322 323
299 301 298 297 298 299 298 298 299 298 298 297 299 298 297 297 298 303 299 297 298 300 302 303 307 310 311 314 316 318 319 320 321 321 322 324 326 327 327 329 330 330 333 334 335 336 334 335 335 337 338 338 337 338 338 339 339 339 339 339 339 340 340 340 339 338 336 335 335 334 334 333 333 331 330 331 329 329 328 328 327 326 325 323 322 322 322 321 319 319 319 318 318 319 320 320 320
298 298 299 296 297 297 297 297 298 297 298 296 296 293 297 299 302 301 297 297 299 300 302 303 304 306 309 310 312 315 317 319 319 321 323 325 327 328 328 330 331 331 333 335 336 334 334 335 336 337 338 338 337 338 338 338 338 339 339 339 339 340 339 339 338 339 338 336 334 333 333 333 331 331 330 330 330 329 329 328 327 325 323 320 320 320 320 319 319 318 318 315 313 316 319 320 319
297 296 298 297 295 295 296 297 297 298 297 297 297 294 297 298 297 297 297 297 299 301 303 302 301 301 303 306 308 311 315 318 319 321 323 325 327 328 329 330 331 332 333 334 334 335 334 334 335 335 336 338 338 338 337 336 338 339 339 339 339 339 339 339 338 338 339 337 335 333 333 332 331 330 328 327 327 327 327 326 325 326 327 322 319 319 320 319 319 318 317 317 317 317 319 319 318
296 295 293 294 294 294 295 296 296 297 297 298 297 294 296 299 299 296 297 298 299 301 302 303 303 302 302 302 303 306 308 314 317 319 322 323 324 325 326 327 329 330 331 333 334 334 334 334 335 334 335 336 336 336 336 335 335 336 337 333 339 339 339 338 338 338 338 337 335 334 333 333 332 331 329 327 326 326 326 326 325 325 325 322 319 318 319 318 318 319 318 317 316 317 317 317 317
295 295 296 293 293 295 294 295 295 295 297 298 297 295 295 296 298 297 296 298 299 300 302 303 303 303 303 303 303 303 305 306 308 311 316 320 322 323 324 324 326 328 329 331 332 332 332 333 333 333 333 335 335 336 337 337 336 336 335 336 338 339 338 338 339 339 338 338 336 335 334 333 333 333 332 331 329 327 327 327 327 327 326 323 320 318 317 319 317 317 317 317 319 317 316 316 316
294 295 294 295 292 293 293 295 296 297 297 297 297 294 296 298 299 298 297 297 298 300 302 303 303 303 304 304 304 303 304 305 306 307 307 312 318 321 322 321 325 326 327 329 330 331 331 332 332 332 333 334 334 334 335 337 337 338 338 337 334 335 337 338 338 339 338 338 338 336 335 334 332 332 332 331 330 331 330 328 328 327 327 325 321 317 315 315 315 316 316 317 317 317 314 313 313
292 292 291 290 290 292 292 294 294 295 295 296 296 294 295 298 300 300 300 299 299 300 302 303 303 304 304 304 304 304 305 305 307 309 308 307 308 313 319 322 323 324 325 326 327 329 330 331 330 330 330 332 332 333 334 335 334 336 337 337 337 337 337 338 338 338 338 337 338 338 336 335 333 333 333 332 329 330 329 327 327 326 325 324 321 317 312 311 313 314 316 316 315 315 313 312 312
295 295 293 293 291 291 292 294 293 295 296 295 295 294 295 298 299 301 302 299 299 301 301 301 301 303 303 304 305 305 306 306 308 307 307 306 307 307 309 314 320 323 323 324 324 326 327 329 329 329 329 329 331 331 331 332 333 332 331 334 333 332 334 335 338 337 338 337 339 339 338 336 334 332 332 331 330 330 330 329 327 327 326 325 323 318 315 314 312 313 314 315 313 313 311 309 309
296 296 295 293 294 293 292 292 294 293 295 296 296 296 296 297 299 300 302 301 299 299 300 302 303 304 305 306 305 307 306 306 310 307 307 308 308 308 308 309 312 316 320 322 322 323 325 326 326 326 328 329 328 328 329 329 328 329 331 331 330 331 331 332 334 337 338 338 338 338 338 336 335 332 331 332 332 329 331 329 327 325 325 325 322 318 317 316 314 313 312 313 313 312 310 307 305
296 294 294 292 294 293 293 294 293 294 294 295 291 293 295 297 299 301 302 300 299 300 301 301 303 304 305 306 306 307 307 307 304 305 305 306 307 307 306 306 305 307 311 317 320 321 323 324 324 325 327 327 327 328 328 328 329 328 328 328 329 331 331 331 331 334 334 334 336 337 337 337 335 332 331 332 331 330 328 328 327 326 322 321 321 322 320 314 312 311 311 310 311 311 310 307 303
295 295 294 293 293 294 292 293 293 293 293 295 293 293 296 298 300 302 301 301 302 303 303 303 303 304 305 304 305 305 305 305 305 304 305 304 307 307 305 306 306 306 309 311 316 319 321 322 323 324 325 325 326 327 327 326 328 329 328 328 327 327 331 333 333 333 333 334 336 337 337 336 336 336 334 330 330 329 327 326 325 324 322 320 319 320 320 316 313 312 311 311 310 310 310 308 305
295 294 292 292 295 292 291 293 294 292 293 295 294 293 296 299 300 300 302 301 301 300 298 299 301 301 303 304 304 304 303 304 304 305 304 304 304 304 304 304 306 307 306 307 310 314 317 319 321 323 323 324 325 326 325 328 328 329 329 329 330 329 327 329 329 329 331 332 332 335 337 336 336 336 336 335 332 331 329 326 325 324 323 322 321 321 320 316 314 311 310 310 311 306 306 305 304
294 297 295 294 290 292 294 293 293 291 291 291 293 294 295 297 297 298 297 292 292 295 295 296 298 300 300 301 299 300 300 302 303 304 305 303 302 304 305 305 304 303 306 307 308 310 313 316 319 321 322 323 324 324 324 326 326 327 328 326 327 326 325 327 326 326 328 328 329 331 332 334 335 334 334 333 330 330 329 328 326 325 325 324 321 320 319 317 314 311 309 308 309 308 306 306 303
293 295 296 295 295 293 290 292 293 294 294 292 291 290 291 295 296 296 298 296 296 295 296 300 300 298 298 299 301 302 301 300 300 302 304 303 302 303 304 305 306 306 305 308 309 310 312 314 317 319 321 322 323 324 324 324 324 323 322 321 320 320 319 320 320 321 324 325 326 329 331 333 334 334 335 335 334 330 330 330 328 328 328 326 322 320 319 318 316 313 311 310 309 310 310 309 305
291 293 296 294 295 295 294 293 295 290 288 292 290 289 288 296 295 297 295 295 296 298 297 298 299 300 300 302 303 303 303 303 302 300 299 299 302 302 305 307 308 308 307 307 307 309 311 314 316 318 319 321 323 323 324 323 323 322 322 321 321 320 320 321 324 325 325 326 327 327 328 330 331 331 331 332 332 333 332 332 331 330 328 325 321 320 318 318 317 314 312 311 310 309 309 308 307
291 293 294 295 295 295 295 295 296 292 292 292 291 293 289 289 295 297 292 292 296 297 297 300 301 300 301 302 302 303 304 303 302 301 300 300 301 304 307 307 307 307 307 307 308 309 311 313 315 317 319 320 321 322 322 323 322 322 322 321 321 321 321 321 324 324 325 325 326 326 326 327 328 329 329 330 331 330 330 330 330 329 328 326 323 320 319 319 318 315 312 310 310 309 309 308 308
293 288 294 295 297 297 296 296 292 291 291 289 291 294 287 288 294 294 293 294 297 297 296 299 300 300 300 301 301 302 302 301 299 302 304 306 307 307 306 307 306 307 308 310 311 312 313 315 316 318 319 320 321 321 321 322 322 322 322 321 321 321 322 323 324 324 323 323 323 323 324 325 325 326 327 327 327 327 326 327 329 327 326 326 320 322 320 320 319 317 314 311 310 310 309 309 309
291 291 292 292 293 293 295 293 293 290 288 286 289 290 286 288 296 295 292 292 294 297 297 299 299 299 299 300 301 302 303 304 302 301 303 305 306 306 305 305 307 307 307 308 309 311 313 315 316 316 318 319 319 319 320 321 322 321 321 321 320 321 321 321 320 320 320 320 319 320 322 322 322 323 324 324 324 324 324 323 323 325 326 327 321 322 322 321 321 319 316 313 311 310 311 310 309
293 295 296 295 294 293 292 292 290 289 284 287 286 286 286 285 294 293 294 295 295 295 298 298 299 300 300 300 299 300 301 303 304 304 304 305 303 304 305 307 307 308 308 310 311 312 313 315 316 317 317 317 316 318 319 319 320 321 320 320 320 319 321 320 318 316 316 314 316 318 319 319 320 320 321 322 322 322 321 322 321 322 322 318 318 320 320 320 320 319 318 315 312 311 310 309 308
296 295 294 293 291 293 291 289 290 284 283 284 284 285 287 283 289 295 295 292 292 297 298 298 299 299 300 300 299 299 299 301 304 305 305 305 305 305 307 307 308 308 309 310 311 312 313 314 316 313 310 311 313 314 316 317 317 318 319 320 320 320 320 319 318 318 318 316 316 316 318 316 315 316 316 317 318 319 319 320 321 321 321 320 320 321 320 320 320 319 318 316 314 312 311 310 309
294 294 293 288 285 286 283 286 282 283 283 284 285 285 284 285 292 294 293 294 294 294 299 300 299 299 300 300 300 300 300 301 304 305 305 307 307 307 307 307 308 309 309 309 309 310 311 313 314 314 312 312 313 314 316 317 316 316 316 317 318 318 318 319 318 319 320 318 318 316 316 314 315 313 313 313 315 316 317 317 317 318 318 319 319 320 321 321 320 318 317 316 315 313 311 310 309
293 292 290 286 282 281 279 282 281 281 283 283 284 287 282 290 292 297 296 297 295 296 297 299 298 299 299 299 300 299 301 301 303 305 306 307 307 306 307 307 307 308 308 308 309 310 311 311 312 314 312 311 311 311 313 315 315 317 316 316 316 316 316 316 317 317 318 317 318 318 317 317 317 316 316 316 316 317 316 316 316 316 317 318 318 317 318 318 319 319 318 316 315 314 313 311 310
292 295 294 289 288 282 278 280 279 282 283 283 285 283 285 286 291 294 295 296 294 293 293 294 295 295 296 297 297 297 300 302 304 305 306 306 306 306 306 306 305 305 305 306 307 308 309 310 310 310 309 308 309 311 311 312 313 313 313 314 314 315 315 315 315 317 317 316 316 316 316 316 316 316 316 317 317 316 316 315 315 315 315 316 316 316 316 316 317 317 317 317 316 316 314 313 313
292 291 293 289 288 292 284 282 283 281 282 282 282 284 290 292 294 294 295 294 294 293 293 293 295 297 296 297 299 301 302 303 304 305 304 304 304 304 305 305 304 304 304 305 305 306 307 307 307 307 308 308 308 308 309 310 311 311 310 311 311 311 312 312 313 313 313 314 314 314 314 315 315 315 315 315 315 314 314 314 314 314 314 315 315 315 315 315 315 315 315 315 314 315 313 312 311
291 290 287 290 293 289 279 279 279 278 281 282 287 287 291 294 294 296 293 292 294 293 292 292 295 297 297 300 301 302 303 304 304 306 304 303 303 304 305 304 304 304 304 304 303 304 305 306 307 306 306 306 306 306 307 306 307 307 308 308 309 309 309 310 311 311 311 312 312 312 312 312 313 313 313 313 312 312 312 312 313 313 313 313 313 313 313 314 314 313 313 313 313 314 313 312 312
291 286 291 290 294 295 288 282 280 282 280 282 283 284 287 287 286 294 292 293 295 295 294 294 295 295 298 300 302 303 303 304 304 303 303 304 304 303 303 302 302 302 303 302 301 302 302 303 304 306 306 305 305 306 306 306 307 307 308 308 308 308 308 309 309 309 310 309 310 310 310 310 311 311 311 312 311 311 311 309 310 311 312 312 312 312 312 312 312 311 312 312 312 313 312 311 311
293 293 298 291 285 284 286 286 278 278 278 281 283 282 283 288 290 292 291 292 294 295 295 293 294 295 299 299 301 302 302 303 303 302 303 304 304 303 303 302 302 301 301 301 301 302 302 302 302 303 302 302 302 304 304 305 305 306 307 306 306 307 307 307 308 308 308 307 308 309 309 309 310 310 310 310 309 309 309 309 310 310 310 310 311 311 310 310 310 310 310 310 311 311 310 310 310
293 292 290 291 291 290 285 285 287 286 282 278 281 280 284 290 291 293 294 295 297 296 294 294 296 298 299 300 301 302 303 303 303 303 303 302 302 301 301 302 301 301 301 301 302 302 302 302 302 302 302 302 302 302 303 303 304 305 305 306 306 305 305 305 306 306 306 307 307 307 307 307 308 308 308 308 307 308 308 308 308 308 308 309 309 309 309 309 309 309 309 308 309 309 308 307 308
287 289 287 291 288 290 290 287 285 284 282 281 282 280 285 292 293 294 295 295 296 296 296 298 297 299 300 301 303 303 303 303 303 303 302 302 301 301 301 301 301 301 301 302 302 302 302 301 301 301 301 301 301 301 302 302 303 303 304 304 304 304 304 304 304 304 304 305 305 305 305 306 306 305 306 305 306 306 306 307 307 307 307 307 307 307 308 308 307 307 307 307 307 307 306 306 306
291 290 287 290 286 285 283 282 284 281 284 279 278 280 288 295 291 293 295 292 294 295 299 299 297 298 300 302 303 303 302 302 301 301 301 301 301 301 301 301 301 302 301 300 301 301 300 300 300 300 301 300 300 300 300 301 302 302 302 301 301 302 302 302 302 303 303 303 303 303 303 302 302 304 304 304 304 305 305 305 305 305 305 305 305 306 306 306 305 304 305 305 305 305 304 304 304
Wind_Speed
2 1 1 1 1 2 4 2 5 2 3 1 2 3 5 2 1 4 5 5 6 3 3 2 8 9 4 2 5 5 3 4 5 5 5 3 3 11 8 6 9 11 11 9 8 10 9 8 10 10 11 12 12 11 11 10 10 9 10 11 10 9 10 10 9 13 12 12 12 13 13 13 13 13 13 13 13 12 12 13 14 16 16 15 15 16 15 15 15 15 15 16 15 15 15 15 15
2 1 2 2 0 1 2 3 1 2 2 2 2 1 5 4 2 6 8 7 4 6 4 3 7 4 2 3 2 1 2 5 5 4 4 5 9 10 7 8 11 12 10 10 9 8 9 11 9 9 11 11 11 11 10 10 9 9 9 10 10 10 9 8 11 11 12 12 13 13 13 13 13 13 13 13 14 13 14 12 13 14 15 14 15 15 15 15 14 15 14 15 15 15 14 15 15
1 3 4 1 2 2 3 1 4 0 3 3 4 2 4 6 5 5 5 4 5 6 5 4 4 5 4 2 4 4 4 1 2 2 5 8 12 9 9 11 12 12 11 9 8 8 8 10 8 9 11 11 11 11 10 9 9 9 9 9 10 10 10 10 10 10 12 14 13 13 13 14 13 12 13 14 13 12 13 12 13 13 14 15 14 14 15 15 15 14 14 14 14 14 14 14 14
3 2 1 1 2 2 1 1 2 2 3 3 1 5 6 5 5 6 6 5 6 7 6 7 8 2 3 4 2 1 1 2 1 5 5 9 3 11 11 13 12 11 10 8 8 8 8 10 8 10 10 11 11 10 10 9 9 9 8 9 9 9 9 9 11 11 11 10 12 14 12 13 13 12 13 12 13 13 12 14 15 14 14 14 15 15 16 16 14 13 14 14 14 14 14 14 15
3 2 2 3 3 2 1 2 1 2 2 2 3 3 5 3 6 7 6 5 6 3 4 6 3 3 3 3 2 3 4 4 2 2 4 7 7 11 13 12 12 11 11 10 8 8 9 10 9 7 10 11 11 11 10 9 9 9 8 8 8 8 8 8 9 11 12 11 11 12 12 14 12 12 11 11 13 11 11 12 13 12 12 13 12 13 14 14 14 13 14 13 13 14 13 14 13
1 2 3 2 1 2 2 3 3 3 4 1 1 5 3 3 7 7 9 7 4 1 3 7 2 4 4 1 1 2 2 3 6 4 7 7 9 11 14 12 12 12 11 10 8 8 9 9 8 7 9 12 11 11 9 9 9 8 9 9 8 8 8 9 9 9 12 12 13 13 12 13 11 11 11 12 11 11 11 11 11 12 12 12 13 14 14 14 13 13 13 13 13 14 13 13 13
1 3 2 3 4 2 2 2 1 2 3 3 3 3 2 6 7 11 10 7 1 1 1 2 1 2 4 3 3 0 3 1 5 5 6 9 10 12 13 12 12 12 11 10 9 8 11 8 9 9 7 9 11 10 9 8 8 8 8 8 8 8 8 8 8 9 11 11 12 13 12 13 11 11 11 10 11 11 12 11 11 11 12 12 13 13 14 13 13 13 13 13 13 13 13 13 13
2 3 1 3 3 2 1 1 1 2 3 2 3 2 3 5 6 9 11 7 7 5 4 1 2 5 3 1 1 5 1 2 2 4 4 10 11 12 13 13 13 12 11 10 9 8 9 7 8 8 8 10 11 10 10 8 8 7 8 8 8 8 7 8 8 9 11 11 10 11 11 12 12 10 9 9 10 11 11 10 11 12 12 12 12 12 12 12 13 13 13 13 13 13 12 13 13
3 1 1 2 3 1 1 1 1 1 1 2 2 4 3 1 6 7 11 2 4 1 5 5 3 5 4 4 0 4 2 2 1 1 7 10 12 13 10 13 12 12 11 10 9 8 9 6 7 7 8 9 10 10 10 9 7 7 7 8 8 7 8 8 7 8 8 9 11 11 12 11 11 9 8 8 10 11 9 10 10 10 10 11 11 11 11 11 11 11 11 12 12 12 12 12 13
2 2 4 1 1 3 1 2 3 3 1 1 2 1 3 4 6 4 9 6 3 3 3 3 1 4 4 3 3 4 4 2 3 6 8 11 12 12 12 12 12 12 11 10 9 8 8 8 7 7 8 8 8 9 10 9 8 7 7 7 8 8 7 7 8 8 8 9 11 11 10 10 10 9 8 9 10 10 10 9 10 10 10 10 10 11 11 11 10 11 11 11 11 12 11 12 13
2 2 2 4 4 2 4 3 1 3 2 1 4 2 1 5 5 5 5 4 2 2 5 3 4 4 5 2 1 4 4 3 6 9 9 11 12 12 12 11 11 12 11 11 9 9 8 10 8 7 8 7 7 8 9 9 8 7 7 7 7 8 7 8 8 8 8 8 8 9 8 9 10 9 9 9 9 10 11 10 8 10 10 10 10 11 10 10 10 10 10 10 10 10 11 11 12
3 2 3 4 3 3 2 0 1 1 0 3 4 3 3 7 6 7 6 6 5 3 4 9 1 5 4 2 3 4 4 5 8 8 10 11 11 11 11 10 11 11 11 10 10 9 8 9 9 8 7 6 7 7 8 8 8 7 6 7 7 7 8 8 8 8 8 8 9 9 9 9 9 9 8 8 7 9 10 10 9 9 9 10 10 10 10 10 10 10 10 9 10 10 11 12 13
2 1 3 3 2 1 3 2 1 2 2 3 5 3 4 7 8 5 8 2 4 5 4 8 2 3 3 2 3 4 6 7 8 8 10 11 10 10 9 9 11 11 10 10 10 9 9 9 9 10 9 8 7 7 8 8 7 6 6 6 7 7 7 7 8 8 8 8 8 9 8 7 8 9 7 6 5 8 9 7 8 8 10 9 9 9 10 11 11 10 9 10 10 11 11 12 12
3 2 2 3 1 1 2 2 0 3 3 5 3 6 6 4 3 2 6 6 6 4 3 1 2 2 1 1 4 5 6 9 10 9 9 10 10 10 10 9 10 10 10 10 10 10 10 8 9 9 10 10 10 8 8 8 7 7 6 6 5 6 6 6 6 7 7 6 7 7 6 6 7 8 7 3 5 8 6 6 7 8 9 9 10 10 10 11 10 9 10 10 10 11 11 11 10
2 1 3 4 3 2 1 2 2 1 3 5 4 8 5 1 1 2 6 6 3 5 2 0 2 2 2 6 5 6 9 9 10 8 10 9 10 9 10 9 10 9 10 10 10 10 10 9 8 8 10 10 10 9 9 9 8 7 7 7 5 5 6 6 6 5 6 7 8 7 7 7 8 7 6 5 5 7 6 7 5 5 9 12 11 10 10 10 10 9 9 9 10 11 11 10 10
2 3 2 4 3 3 3 2 1 3 3 4 4 0 6 3 1 3 1 4 3 2 2 3 2 2 4 3 5 6 9 10 9 9 10 9 9 9 9 9 9 9 8 9 10 10 10 10 9 8 8 9 8 8 8 10 9 8 8 7 7 6 5 6 6 6 7 8 8 8 7 7 7 7 7 5 6 7 6 4 5 5 7 10 9 9 9 9 9 9 8 8 10 11 11 10 9
1 2 4 3 4 4 3 3 5 2 5 3 5 7 8 6 2 2 2 1 3 3 3 1 1 1 3 4 4 3 6 8 9 11 10 10 8 8 7 7 7 8 6 9 9 10 10 11 10 8 9 9 8 8 7 8 9 9 7 7 7 6 6 6 7 7 7 7 7 7 6 6 6 6 6 5 4 5 5 7 8 7 8 7 8 8 8 8 8 8 8 7 9 11 10 11 10
3 5 4 5 2 4 6 5 5 2 2 7 8 9 6 7 5 3 3 4 1 2 4 2 2 4 1 3 2 2 3 8 11 13 12 11 9 9 8 9 8 9 8 8 9 10 10 10 11 10 8 9 9 7 5 6 7 8 9 9 8 7 6 7 6 6 7 6 6 6 5 5 5 5 5 6 6 6 6 6 8 7 8 6 8 8 8 7 7 8 7 7 8 9 6 5 6
3 2 4 5 4 3 3 2 5 2 4 4 6 5 4 4 9 5 5 4 3 5 4 4 5 4 4 2 1 6 5 8 13 13 15 16 13 13 11 9 10 10 10 9 9 11 10 10 10 10 10 10 9 8 6 6 8 8 8 8 7 8 8 7 6 6 6 6 7 5 4 4 4 4 4 3 3 7 6 5 7 8 8 7 7 7 7 7 7 7 7 5 5 4 3 4 4
1 3 6 4 4 3 1 1 5 2 3 5 6 5 3 3 2 5 4 3 2 7 5 5 8 9 9 6 4 9 7 9 13 14 15 15 14 14 13 12 11 11 11 10 10 9 10 10 10 10 11 10 9 8 8 7 7 7 7 6 6 7 7 7 6 6 6 6 5 5 4 4 4 4 6 5 4 6 5 6 6 7 8 7 9 7 7 9 11 9 6 2 3 3 3 3 3
3 3 6 6 6 6 4 4 2 3 2 3 4 5 4 4 2 6 5 4 7 8 8 7 8 11 9 9 8 11 10 11 13 14 14 14 14 12 12 12 11 10 9 9 9 10 12 11 10 10 10 10 10 8 8 8 8 7 7 7 6 6 7 7 6 6 6 6 6 4 4 4 4 4 6 6 6 5 6 6 6 5 5 5 5 5 4 5 4 3 3 4 2 2 3 3 3
5 1 5 4 4 3 3 3 3 3 1 4 6 9 6 5 2 5 7 6 2 1 1 6 7 4 7 9 9 12 14 14 15 15 16 16 17 15 13 12 12 11 9 9 9 9 10 11 11 10 10 11 11 10 10 8 8 8 8 7 7 7 7 7 6 6 6 7 6 5 4 5 5 5 5 6 5 5 6 5 5 5 5 5 6 4 4 4 3 3 3 3 2 2 2 2 2
7 0 0 1 1 1 3 3 3 5 5 7 8 4 5 7 3 1 5 10 2 4 4 5 4 2 2 8 11 12 14 16 17 18 18 17 17 15 13 11 12 11 10 11 10 9 9 10 11 10 10 10 12 11 9 7 8 9 8 8 8 8 7 8 7 7 7 7 7 7 5 5 5 5 6 6 6 5 5 5 5 5 5 5 5 4 4 3 3 3 3 3 2 2 2 2 2
3 6 4 3 3 4 1 3 3 3 6 7 3 3 5 6 6 2 6 11 3 5 3 3 2 2 5 10 12 14 16 17 19 19 18 17 16 15 12 12 11 11 11 12 11 11 10 12 11 10 10 10 10 11 10 9 9 9 7 6 7 7 7 8 8 8 7 7 8 7 7 5 6 5 6 6 6 5 5 5 4 5 5 5 5 4 4 3 3 3 3 3 3 3 3 3 3
3 4 4 4 1 3 1 1 3 2 2 3 3 7 1 2 1 2 8 9 4 4 2 2 4 4 4 6 10 11 12 12 13 13 13 12 12 12 12 10 11 11 13 13 11 12 13 11 11 12 11 11 10 10 10 9 10 10 8 7 10 7 8 8 8 8 7 7 8 8 8 6 5 5 6 6 5 6 5 5 5 5 5 4 5 4 4 4 4 4 4 4 4 4 4 4 4
4 3 6 5 4 3 3 5 2 2 2 3 7 4 3 1 1 7 11 2 3 1 1 3 4 4 6 7 9 10 12 14 12 13 14 12 11 13 14 12 11 13 13 13 13 12 12 13 14 14 13 11 10 10 9 10 10 11 11 8 9 8 9 8 8 8 8 8 7 8 9 8 5 6 6 6 6 6 6 6 6 5 5 5 5 5 5 4 4 4 5 4 4 4 5 4 4
5 7 5 7 4 3 1 2 3 1 2 2 4 5 3 2 1 5 4 3 4 1 3 3 5 6 6 6 7 8 9 12 13 10 10 12 12 14 14 14 14 13 12 13 12 12 11 12 13 14 14 10 10 10 9 10 9 9 10 10 8 8 10 9 9 9 9 9 9 9 9 9 7 6 6 6 5 6 6 6 6 5 6 5 6 5 5 5 4 5 5 5 5 5 5 3 5
7 11 10 8 5 4 3 5 3 3 4 2 2 4 2 2 2 6 4 3 2 2 3 4 5 5 5 6 6 7 7 7 8 9 13 15 14 14 15 14 16 14 13 13 11 10 11 14 14 14 13 12 11 12 10 10 10 9 10 11 11 10 9 10 10 9 8 10 10 10 9 9 9 6 6 6 6 6 6 7 6 5 6 6 6 5 5 5 4 4 3 2 2 3 3 3 4
7 6 7 2 3 4 4 2 1 4 2 2 2 4 4 5 8 4 3 1 2 1 2 4 5 5 4 4 5 6 7 7 8 10 14 13 11 11 15 14 12 13 10 12 12 11 12 12 13 14 13 13 14 14 12 11 10 10 9 10 9 8 9 11 11 9 9 9 9 11 11 10 9 6 6 6 6 6 7 7 7 6 6 5 5 5 5 4 4 4 4 3 3 3 4 5 3
3 3 3 5 5 4 2 1 1 2 2 1 2 6 6 11 13 4 1 2 2 3 4 4 4 4 4 5 6 7 7 8 10 12 11 11 11 12 13 12 13 11 9 9 12 13 11 8 9 10 12 14 15 14 13 12 12 11 9 9 8 8 8 10 11 10 8 9 10 11 10 10 7 6 6 6 7 7 7 7 7 6 6 7 6 5 6 6 6 5 4 3 4 5 6 6 5
6 2 3 3 7 5 3 1 3 4 1 2 3 7 4 1 0 3 3 0 3 5 5 3 3 3 4 5 5 7 9 10 12 12 12 11 10 9 11 10 11 12 8 9 13 13 13 11 9 10 12 15 14 15 15 14 12 11 11 9 8 9 8 8 10 12 9 8 10 10 12 12 9 8 7 6 6 5 5 6 8 7 5 6 6 7 7 7 7 8 7 7 6 7 7 7 7
2 7 6 1 6 2 1 3 3 5 2 2 4 6 9 3 4 3 2 1 3 7 5 4 4 4 4 4 6 7 8 8 11 12 12 11 11 10 10 12 10 11 13 11 10 10 13 13 12 12 12 15 15 14 14 13 13 12 11 11 11 11 10 8 7 8 10 10 9 8 13 13 11 11 10 9 7 7 6 7 8 7 8 7 7 6 7 7 7 7 7 8 8 9 8 7 6
1 4 4 7 2 3 3 1 1 3 0 0 6 4 2 3 2 2 1 2 2 3 5 5 6 6 5 5 5 6 6 7 8 11 12 11 11 11 10 11 11 12 11 11 11 11 12 13 13 14 14 14 14 13 12 12 12 12 12 12 12 11 11 11 10 8 7 8 11 11 12 13 12 13 13 13 10 10 10 10 10 10 9 9 8 7 7 7 6 6 7 9 9 8 7 7 6
6 1 2 0 8 6 5 4 1 3 2 8 2 5 5 2 3 3 2 2 1 4 5 5 5 4 4 3 5 6 6 7 9 9 10 11 10 12 12 11 11 11 11 11 11 11 12 11 11 12 12 12 12 12 13 13 13 12 11 11 12 12 13 12 12 12 12 11 10 10 13 12 11 12 11 10 10 10 10 9 8 9 8 8 7 7 6 5 5 7 8 8 8 7 6 6 7
9 7 4 3 2 4 1 6 3 1 0 5 2 7 11 8 5 6 5 3 4 7 7 6 6 5 4 5 5 6 6 7 10 5 5 7 9 10 10 10 10 10 9 11 11 10 10 10 10 11 13 12 12 12 12 12 12 12 11 12 12 13 11 10 9 8 9 9 11 11 10 12 13 15 14 10 7 8 7 6 7 7 7 8 7 7 5 6 7 8 10 8 7 6 3 4 5
11 11 6 5 7 7 5 2 2 2 7 8 7 9 10 11 12 9 4 4 5 8 6 6 7 7 6 7 6 6 7 10 4 2 4 5 5 6 7 7 8 9 9 9 11 11 11 11 10 10 13 13 11 11 10 11 11 11 11 9 11 12 12 11 11 11 8 8 8 11 13 12 13 12 14 11 11 13 13 13 11 9 9 9 11 8 9 10 11 11 11 9 7 6 2 2 2
4 3 3 4 5 2 3 0 3 1 2 9 8 9 9 11 11 10 8 3 5 8 10 9 8 7 7 7 8 7 8 8 2 2 4 5 6 5 4 4 5 7 9 10 11 12 13 12 11 14 11 13 12 12 11 12 12 11 11 11 11 9 11 12 11 11 11 12 12 10 8 8 10 12 11 13 13 14 14 10 8 7 9 12 12 10 11 10 9 8 6 5 8 8 6 3 2
9 7 6 4 4 4 1 2 1 0 3 2 0 5 11 13 13 12 8 4 12 10 10 10 10 9 7 8 8 8 6 1 2 5 6 6 4 3 3 4 4 7 8 9 12 12 11 12 12 12 10 11 13 13 12 12 12 11 10 11 11 9 8 9 10 9 10 11 12 11 11 8 6 7 9 11 11 12 9 8 9 10 8 7 9 9 8 9 7 7 5 5 7 10 8 7 5
2 5 4 3 4 3 2 1 1 1 2 4 2 6 9 11 10 10 9 10 9 7 6 7 6 7 7 7 7 7 5 7 4 7 6 5 3 3 3 4 5 7 6 8 9 9 10 11 11 10 10 11 11 12 12 12 12 11 11 8 9 9 9 8 8 6 5 7 8 9 12 13 12 10 9 8 9 8 8 7 7 7 8 9 8 10 12 9 9 12 11 10 8 7 7 5 8
5 4 5 7 3 6 5 4 3 1 2 2 1 5 9 9 8 11 10 8 6 3 5 7 6 10 11 9 4 4 7 7 8 7 7 5 3 3 3 4 5 5 5 6 7 9 8 9 10 10 10 10 10 11 11 11 11 10 11 10 8 9 7 8 10 11 10 9 10 8 10 13 13 11 11 11 12 13 13 12 9 8 8 9 9 10 13 10 9 10 10 11 8 6 7 7 9
1 3 3 3 3 4 3 4 3 2 1 2 3 6 9 5 7 7 3 0 3 5 4 6 7 8 8 8 8 8 11 9 9 8 8 5 5 5 4 2 2 4 6 7 7 8 6 10 10 10 9 10 9 10 11 11 9 9 7 1 2 1 2 6 7 9 11 12 11 10 10 9 8 8 8 8 7 8 10 12 10 9 9 11 10 9 9 9 10 9 11 10 10 10 8 7 7
4 5 5 3 6 7 3 7 7 4 4 3 2 4 4 0 4 6 2 3 2 2 3 4 2 3 3 5 6 4 6 7 9 9 5 3 4 4 3 2 4 5 5 6 6 7 7 7 8 9 8 8 9 10 10 10 10 11 8 8 9 10 10 10 12 12 10 12 12 10 10 9 9 9 9 8 8 7 7 8 8 8 9 8 7 6 9 8 9 10 10 11 13 12 11 9 7
4 5 5 2 5 7 8 7 4 3 3 2 3 6 3 1 3 3 1 3 8 2 3 4 2 2 2 3 4 4 4 5 6 7 6 6 5 3 3 2 2 3 3 3 4 5 7 6 7 8 7 7 8 8 10 10 11 10 12 12 11 10 10 10 9 8 9 8 9 11 10 10 12 12 12 13 13 12 11 11 11 12 12 11 8 8 8 10 8 9 8 10 11 11 11 10 9
7 3 3 6 9 10 9 9 3 2 3 1 1 2 4 5 6 2 0 4 6 5 2 0 1 2 3 3 4 5 4 4 4 4 3 3 2 2 2 1 1 1 1 2 3 4 7 7 7 8 7 7 7 8 11 11 10 11 11 12 10 11 11 9 8 8 8 8 8 9 8 9 9 10 10 10 10 10 9 9 8 9 10 10 8 9 10 10 8 8 8 9 7 7 10 11 7
1 0 2 5 4 6 7 4 3 2 1 3 3 1 3 5 3 3 2 5 6 5 2 1 2 2 3 4 4 4 4 3 2 1 1 2 2 2 1 2 2 1 1 1 3 4 4 5 6 6 6 6 6 9 10 11 10 10 10 10 10 9 9 8 7 6 7 7 9 8 8 9 8 9 8 9 8 6 6 7 7 7 7 8 6 7 9 9 10 11 11 10 11 11 11 12 11
0 4 6 6 5 6 2 3 4 1 2 6 6 1 4 10 2 3 2 2 7 4 4 3 1 2 2 3 4 4 3 2 0 1 1 1 2 2 2 2 2 3 2 2 2 2 3 3 4 5 5 4 5 8 9 10 10 9 9 10 10 9 8 7 5 5 6 6 6 7 8 8 8 8 7 7 7 6 6 5 6 6 7 7 7 8 9 10 10 10 11 10 11 13 11 12 14
11 6 10 6 6 3 2 4 1 1 4 3 4 2 2 5 2 5 4 5 3 3 3 3 2 2 2 1 2 3 3 3 2 1 2 3 2 3 2 4 4 3 3 3 3 3 3 4 4 5 4 4 5 6 7 8 8 8 8 8 9 9 8 8 6 6 5 5 6 8 7 7 7 7 7 7 7 6 6 6 6 6 5 4 3 4 6 8 8 9 10 12 12 11 9 9 11
6 3 5 8 4 1 2 1 1 3 4 3 3 1 2 7 3 3 2 1 2 4 8 8 7 5 3 2 2 3 3 2 1 2 4 5 6 5 4 5 5 4 4 4 3 3 3 3 4 5 4 4 4 4 5 6 5 6 6 7 8 8 8 7 8 8 8 8 8 8 7 6 6 6 6 6 7 8 7 7 7 8 7 6 6 5 6 6 6 7 8 9 10 10 9 11 9
1 6 8 6 3 1 3 2 4 7 4 2 2 2 2 12 9 4 2 3 3 6 4 8 5 5 3 2 3 2 2 1 2 3 4 4 6 6 7 6 6 5 5 4 4 3 3 3 5 6 5 4 4 5 6 6 6 6 6 6 6 6 7 8 8 8 7 7 7 7 6 6 6 6 6 7 8 9 8 8 8 8 8 9 9 9 10 10 8 7 8 11 11 12 9 10 9
5 11 8 6 4 4 5 3 2 3 1 1 1 1 5 5 7 13 14 7 3 3 5 1 2 2 2 3 3 3 2 1 1 2 3 4 4 4 5 5 5 4 4 4 3 3 3 3 2 3 4 2 2 2 3 4 5 5 5 6 6 6 6 7 7 7 7 6 5 6 6 6 6 7 7 7 6 7 7 8 8 8 8 9 9 9 9 10 11 10 9 9 10 10 9 9 11
7 3 6 3 5 4 5 4 5 3 1 2 2 1 4 3 2 3 3 2 0 1 2 3 4 2 2 4 4 3 0 2 1 3 3 4 4 4 5 4 4 4 4 4 3 3 2 3 2 4 4 2 1 2 2 3 3 3 3 3 4 4 4 4 4 4 4 5 5 5 5 5 5 5 5 5 4 5 7 7 7 8 8 9 9 9 8 9 10 10 10 9 8 7 9 10 11
2 1 3 1 4 1 1 1 1 2 2 2 2 5 2 4 3 4 2 3 5 2 3 3 6 3 1 2 2 3 3 3 2 4 5 4 4 4 4 4 4 4 4 3 4 3 3 3 3 3 3 3 2 1 1 1 0 0 1 2 3 3 3 3 3 3 4 4 6 6 6 5 4 5 4 4 4 4 5 6 7 8 8 8 9 9 9 8 9 10 10 9 11 7 8 10 10
5 4 4 1 4 9 6 2 1 2 1 3 2 5 5 5 9 3 3 2 4 3 3 3 5 1 3 2 4 5 5 4 4 4 5 5 4 3 4 4 4 4 4 4 4 3 3 3 3 5 4 4 3 2 2 1 1 1 1 2 2 2 3 3 3 3 4 5 5 6 5 5 6 6 4 3 4 4 5 6 6 7 8 8 9 9 9 9 9 9 9 11 12 8 8 10 9
7 3 6 3 1 1 1 2 1 0 4 2 3 6 6 1 3 3 3 5 5 6 5 5 2 2 3 4 5 7 6 5 4 4 3 3 4 5 5 4 4 5 5 5 5 3 3 3 3 4 4 5 4 3 3 2 1 1 1 1 1 1 1 1 2 3 3 3 4 4 5 5 4 5 5 6 5 5 7 6 6 7 7 9 9 9 9 9 9 9 10 10 11 9 10 9 9
2 0 5 5 3 4 1 1 2 3 2 3 4 3 5 6 7 2 4 7 8 8 6 4 5 5 6 6 6 6 5 5 5 5 3 3 3 4 4 6 5 6 6 5 5 4 5 5 5 5 6 5 4 3 3 3 2 2 1 2 3 3 3 3 2 3 3 3 3 3 4 5 5 5 5 6 6 6 6 7 8 8 8 8 9 9 9 8 9 10 10 10 10 11 11 12 11
3 2 3 3 2 1 5 3 0 1 3 0 2 3 5 8 7 4 3 10 10 9 6 7 8 8 8 8 8 8 7 6 5 4 3 3 4 4 4 5 6 6 6 5 5 5 7 5 6 6 5 5 5 6 4 4 4 3 3 3 4 4 3 3 3 3 4 3 2 3 4 4 4 4 5 5 5 6 7 7 7 7 8 8 8 8 8 9 9 10 10 10 10 10 12 11 12
4 4 6 2 1 2 2 2 2 3 2 3 3 3 3 4 7 11 13 3 6 8 9 6 7 7 8 10 9 8 7 6 5 4 4 4 4 4 5 4 4 5 5 5 5 6 6 6 7 7 8 7 8 6 5 4 3 4 5 6 5 4 4 3 3 3 4 3 2 2 3 4 5 5 5 5 6 6 7 7 7 7 7 8 8 8 8 8 9 11 10 11 11 11 11 10 10
3 7 10 11 9 5 5 5 3 0 3 3 3 6 1 2 3 8 4 1 3 5 6 7 6 7 8 7 6 6 7 4 4 4 4 4 4 5 5 5 4 5 6 7 5 5 7 8 6 6 7 7 6 6 5 5 5 5 6 6 6 4 3 3 3 2 3 2 1 2 3 3 4 4 4 5 6 6 6 7 7 7 7 8 8 9 9 9 10 10 11 10 10 11 11 12 10
Wind_Direction
334 211 194 189 187 256 260 29 232 117 237 140 109 209 105 54 65 165 162 140 173 118 123 119 134 147 197 340 338 349 355 323 16 310 65 78 157 148 135 127 139 137 140 143 140 149 157 137 130 124 124 117 113 111 109 109 109 107 106 105 105 99 94 95 100 97 101 103 104 103 102 102 101 100 101 99 98 95 95 97 91 82 84 85 88 89 84 84 86 86 84 85 84 83 83 82 78
285 232 214 227 14 279 174 313 310 193 232 168 124 280 101 145 191 197 160 177 52 129 134 137 159 141 35 322 305 251 155 21 356 41 80 99 141 146 131 157 144 143 142 144 144 151 149 134 125 129 129 122 117 113 111 112 111 108 107 105 106 108 107 106 102 97 98 98 104 108 107 102 102 103 103 99 95 99 98 96 96 104 103 97 93 92 90 88 81 83 85 86 88 89 86 85 84
296 231 147 198 144 337 109 253 241 182 219 182 115 146 111 175 202 159 135 89 95 106 128 122 125 170 225 210 194 257 83 32 72 6 86 138 138 160 149 153 150 144 143 143 148 153 151 136 131 136 136 126 120 117 118 117 115 113 108 109 111 113 112 103 93 100 106 109 110 108 108 103 100 102 101 100 104 96 93 97 97 92 90 90 89 89 88 86 85 86 86 85 85 84 85 85 86
271 349 259 223 170 246 196 177 284 242 225 38 194 131 175 198 164 109 80 86 107 128 139 144 175 68 287 238 12 205 135 134 85 134 125 162 142 147 151 154 148 147 145 149 155 152 149 133 133 142 142 129 126 122 123 121 119 120 117 114 109 109 107 107 103 99 89 88 104 108 110 105 103 103 104 107 96 93 93 94 93 98 98 94 90 88 86 84 86 85 86 88 88 89 87 88 85
240 57 344 263 253 127 318 32 10 266 244 159 63 136 199 222 129 120 105 116 118 120 168 152 188 92 346 326 8 293 84 76 194 247 138 145 120 145 151 153 154 151 152 155 155 150 140 127 136 148 144 134 130 127 125 127 125 123 121 114 111 111 106 104 101 103 105 103 97 100 103 104 102 104 106 98 98 103 101 102 109 101 93 90 89 87 85 86 87 88 89 91 90 88 87 85 87
180 74 31 275 303 34 169 189 178 236 45 341 215 71 183 175 141 124 127 136 111 21 15 172 323 150 192 148 355 326 93 177 107 180 173 144 152 147 153 157 155 155 154 155 155 154 148 127 140 150 149 138 133 131 130 131 129 126 125 117 114 112 101 93 100 102 93 98 101 105 105 99 99 100 101 100 105 100 96 95 95 96 97 96 92 88 86 90 92 92 90 89 88 87 87 89 89
97 144 91 99 115 253 270 231 268 295 87 328 17 40 126 148 133 132 138 137 139 30 144 194 201 127 222 130 174 272 22 76 173 143 195 141 147 155 155 160 156 156 155 155 158 154 141 126 151 150 148 142 136 134 135 130 131 128 124 121 117 114 103 105 109 111 101 100 102 103 100 101 98 100 104 104 96 94 88 92 95 99 100 94 89 88 89 91 94 96 94 93 94 90 87 89 89
94 269 49 217 88 269 159 26 282 272 71 300 4 341 86 142 153 158 154 171 162 199 158 224 236 261 45 303 249 104 89 215 27 139 153 150 152 155 162 161 160 157 159 157 160 146 127 130 146 151 155 147 140 140 133 134 132 131 128 125 124 116 111 100 106 106 113 110 105 103 104 102 99 96 100 106 105 91 96 101 94 74 73 84 86 84 89 90 90 88 89 93 95 93 92 90 91
35 341 268 191 156 77 155 244 4 36 317 218 235 259 329 193 188 167 157 110 103 260 158 180 172 219 118 168 98 102 129 113 50 50 162 154 156 159 165 167 163 160 160 160 159 148 156 133 148 154 153 154 145 143 136 137 139 137 136 132 129 126 120 112 106 107 102 108 106 106 106 104 103 106 105 106 105 102 99 95 92 86 83 87 90 93 89 87 86 87 89 92 97 98 98 96 95
120 289 169 89 85 188 299 144 224 106 296 123 290 123 168 160 185 246 157 148 119 167 118 85 155 275 135 175 136 181 128 95 96 142 166 158 158 162 166 169 162 161 160 159 162 160 156 150 144 149 156 160 150 146 140 142 147 145 143 139 135 131 125 122 115 105 111 116 118 116 113 114 111 109 116 122 113 111 97 102 102 104 104 98 98 92 86 87 90 94 95 97 100 100 99 99 99
206 63 342 183 178 190 212 133 232 150 202 188 233 217 171 156 173 168 160 111 100 171 122 172 197 206 192 142 20 58 79 114 156 160 167 161 161 165 165 167 165 167 162 162 160 169 158 167 141 151 161 161 145 147 144 146 151 153 149 146 138 134 133 129 123 111 109 104 108 115 115 107 111 114 122 125 120 113 120 110 99 100 100 103 96 96 93 90 90 93 94 95 100 101 101 100 102
185 203 197 181 184 230 126 82 100 48 215 193 125 141 161 161 173 164 174 178 166 187 180 185 69 142 180 158 154 131 131 152 173 159 168 161 165 164 162 166 168 170 164 167 164 172 165 159 169 150 163 152 151 151 148 149 152 157 155 150 144 141 140 138 129 127 120 116 110 107 109 113 114 117 117 118 104 98 101 111 112 109 99 99 101 96 98 94 91 90 94 96 99 107 106 106 109
275 262 162 171 94 238 81 221 117 303 212 149 127 129 149 165 185 184 167 103 158 182 198 188 35 261 197 177 65 125 175 162 167 159 165 168 164 163 166 165 169 167 163 172 170 175 174 172 168 172 160 154 152 154 151 149 155 147 156 150 149 147 145 140 138 135 130 126 120 119 111 106 108 117 120 107 100 122 116 112 121 111 107 110 107 104 96 93 88 92 96 101 103 104 109 111 107
224 227 205 163 335 115 189 33 27 224 146 108 75 124 172 188 185 147 151 196 179 211 50 60 188 251 285 151 148 169 168 150 159 161 163 167 164 163 165 167 166 169 168 178 176 177 182 175 175 172 166 176 168 157 154 155 154 153 149 145 147 143 144 142 137 136 131 118 107 95 99 101 111 113 118 121 70 70 69 70 80 102 112 111 105 98 96 93 96 97 98 100 105 104 106 103 93
181 219 78 110 120 231 125 215 137 184 110 142 118 155 174 277 32 155 200 223 151 59 93 359 330 231 93 215 144 179 155 149 154 162 161 161 164 162 165 167 168 169 175 184 183 180 186 178 181 179 183 185 180 176 172 159 155 153 150 146 141 144 140 136 133 117 108 108 107 103 86 79 78 91 102 90 74 61 59 91 75 97 99 91 92 97 97 100 103 101 101 101 101 102 94 85 84
137 163 96 146 144 234 151 209 247 250 110 151 135 114 166 105 257 185 126 348 60 71 243 156 177 312 341 304 57 56 120 143 148 156 154 159 162 162 165 171 174 173 178 185 189 191 191 187 187 185 186 190 189 188 183 173 156 151 152 147 143 138 136 130 117 110 109 115 110 108 103 114 110 97 97 113 77 69 41 82 93 99 110 109 108 106 108 108 109 109 107 109 95 87 84 78 73
214 259 154 121 169 228 134 202 179 167 101 130 141 177 174 160 134 325 343 264 231 125 208 93 198 44 326 22 33 55 121 137 145 157 153 160 163 166 170 173 177 179 183 189 193 194 195 195 191 190 192 192 190 194 193 183 157 148 152 147 145 137 133 121 105 108 116 117 129 119 139 154 144 134 145 146 150 88 67 101 100 86 91 102 108 111 116 116 117 114 113 112 102 92 79 72 71
230 195 162 177 107 200 155 183 190 2 142 160 180 193 177 154 165 143 185 160 229 132 220 132 168 234 29 75 340 150 151 157 161 162 166 164 171 175 180 185 185 189 186 189 196 196 197 198 196 192 195 198 193 197 193 185 166 188 187 168 172 158 140 130 151 162 157 149 129 154 169 162 158 155 136 148 162 128 107 98 102 103 103 98 113 121 124 124 124 116 111 121 111 109 128 121 100
187 101 207 182 180 93 172 151 149 184 87 140 166 181 228 134 162 164 205 165 178 221 212 198 234 195 142 166 123 165 172 170 169 172 171 176 181 182 186 188 193 191 193 191 195 197 199 199 201 197 198 198 196 197 196 191 186 196 199 189 170 176 163 174 179 174 182 172 172 178 174 163 167 157 146 124 130 63 100 106 101 108 111 112 112 118 120 123 126 112 105 108 99 128 149 133 133
11 208 185 173 162 89 198 168 157 56 108 132 164 171 230 105 190 137 217 131 153 233 215 189 228 222 198 149 162 165 180 177 182 179 181 184 188 188 189 190 193 196 194 192 192 196 196 200 201 201 199 200 202 200 199 197 195 197 201 197 189 184 181 192 191 191 192 188 184 187 178 155 168 163 85 110 124 149 124 103 89 96 93 88 110 114 101 76 79 76 73 121 165 165 148 149 149
127 217 195 153 157 148 175 188 71 135 348 142 160 125 206 167 171 193 147 199 228 242 240 239 220 219 184 150 160 165 182 185 191 192 190 192 195 195 197 196 194 192 192 191 194 195 198 199 200 201 199 202 201 202 208 206 200 200 202 203 199 197 193 194 197 199 199 198 198 196 171 158 178 166 168 164 186 173 167 173 168 175 176 152 180 149 158 142 171 162 153 221 173 160 158 158 168
144 268 360 82 143 171 119 184 91 139 18 137 142 160 182 100 157 198 170 209 180 202 279 230 260 51 153 160 162 170 181 189 194 197 198 198 197 199 202 203 203 202 189 193 196 193 197 202 202 200 200 202 203 204 204 204 202 203 204 204 203 203 201 199 200 203 202 203 205 200 174 173 184 179 177 180 185 180 181 182 186 187 180 177 185 176 181 180 167 169 186 201 178 171 167 167 181
185 135 193 48 339 143 138 170 163 164 146 152 169 153 106 180 155 338 226 223 87 77 72 36 12 354 99 140 151 174 187 194 196 201 201 201 203 205 203 201 201 204 203 208 199 200 195 199 202 203 202 201 206 210 206 196 205 215 209 204 204 204 205 204 199 205 206 202 206 204 199 185 187 185 184 187 187 186 187 186 187 181 187 188 192 194 187 172 189 172 191 193 180 171 173 174 179
281 159 135 139 336 109 115 148 132 205 164 160 110 101 185 172 192 122 223 234 130 104 80 33 20 116 136 152 174 179 189 194 199 203 203 204 204 205 205 205 205 208 211 209 207 206 202 203 200 202 207 205 206 208 208 202 206 211 207 194 207 202 200 207 207 208 204 207 206 207 212 196 190 189 186 189 190 195 192 190 191 186 186 183 185 186 179 185 186 186 194 187 184 182 185 188 187
205 142 179 115 27 63 50 108 168 170 119 81 148 165 117 232 8 137 237 236 192 133 74 87 119 127 162 182 181 185 193 204 210 208 210 215 213 215 215 216 213 210 214 211 210 211 207 204 202 205 204 202 206 205 208 208 206 209 207 201 208 190 207 212 211 209 206 208 207 212 210 207 198 194 189 188 192 197 192 194 200 199 196 189 187 194 190 190 190 195 194 196 196 195 189 196 197
207 66 130 133 106 103 106 114 145 176 122 178 150 140 88 119 10 252 248 152 63 28 128 146 146 156 184 196 190 188 194 202 204 206 209 211 215 215 216 216 216 215 213 211 210 214 214 208 211 211 209 206 203 205 209 208 209 207 210 205 208 196 215 207 211 212 211 210 208 211 211 216 206 200 186 188 191 194 194 199 207 203 198 193 194 201 198 200 197 196 203 203 204 202 201 200 203
92 112 112 122 111 130 233 176 145 190 121 240 170 153 118 152 272 237 80 34 348 177 169 139 195 205 193 194 193 200 201 204 203 200 206 213 215 217 216 216 218 220 214 215 211 212 211 209 211 212 213 211 208 206 207 213 209 209 211 213 204 197 210 212 211 209 212 216 214 209 210 216 219 205 195 190 186 193 194 202 209 203 201 197 199 203 192 202 201 204 206 208 210 210 213 196 210
116 122 105 82 107 84 113 106 130 200 117 296 226 117 84 128 165 250 121 75 9 175 167 173 196 216 195 198 198 202 211 207 200 200 208 206 212 211 211 211 214 216 216 214 211 206 210 213 213 211 211 211 214 215 208 211 214 209 211 216 221 207 200 209 213 210 212 220 216 208 209 213 218 207 202 192 194 191 198 204 209 199 207 198 198 198 185 194 199 200 199 230 228 224 218 208 216
137 158 137 101 154 128 15 132 95 290 128 242 271 137 200 169 230 205 76 15 25 350 206 187 205 210 207 204 208 207 211 198 197 208 215 215 212 209 212 211 208 210 217 215 210 207 211 212 215 214 211 212 214 218 215 213 215 216 208 210 217 217 209 211 215 207 212 216 214 213 214 215 213 208 202 201 197 199 200 203 209 201 205 193 193 187 176 177 185 191 193 194 212 225 225 214 207
156 26 106 129 169 196 54 299 306 236 104 296 253 237 225 207 217 122 104 320 303 253 232 199 197 203 213 208 216 219 209 202 209 216 214 216 213 211 216 209 208 208 206 207 207 210 207 211 210 211 208 212 214 218 221 220 218 216 212 212 208 210 210 215 220 218 203 210 210 208 204 214 202 206 204 202 206 212 206 204 208 206 202 181 182 181 195 193 197 196 185 181 209 217 218 218 210
168 148 238 202 173 193 67 345 353 200 94 251 238 243 231 102 267 80 54 348 253 241 225 196 198 213 217 220 221 225 219 214 220 220 220 218 218 219 220 215 208 207 205 204 206 207 203 207 206 213 205 211 207 217 221 225 221 218 218 213 210 211 214 210 219 228 216 201 204 200 207 213 197 199 195 198 201 206 207 209 217 223 216 196 181 188 195 199 201 197 189 198 203 218 224 216 211
103 150 198 145 222 139 60 87 340 213 136 293 218 250 251 200 157 115 56 125 192 245 245 245 237 224 218 223 230 232 232 217 227 232 228 226 225 230 226 223 216 211 213 211 207 203 209 208 205 214 212 216 216 219 222 223 222 222 222 219 217 212 215 216 216 212 213 205 204 206 205 206 198 201 199 199 202 204 205 208 210 207 203 200 202 190 196 201 204 203 200 198 202 212 213 215 211
242 257 141 187 217 159 188 171 6 343 309 183 248 258 64 232 98 102 85 101 129 239 257 248 249 247 227 226 226 236 242 233 228 229 227 222 224 226 229 228 221 217 216 214 209 202 209 209 209 215 216 214 217 216 217 222 225 225 226 227 227 221 216 220 220 222 227 212 200 197 198 203 202 204 205 203 202 202 208 213 212 205 199 197 197 199 202 210 203 201 208 212 220 220 210 217 217
190 311 184 102 197 164 207 68 226 5 268 198 202 249 228 56 172 174 170 225 301 265 261 257 242 233 230 224 231 232 234 242 238 228 217 211 221 221 225 227 225 219 219 217 212 208 208 208 209 215 221 221 219 219 217 217 221 222 219 225 226 232 234 228 227 224 222 223 221 215 205 201 207 214 211 202 212 211 213 216 215 207 202 200 195 190 192 193 205 207 220 215 219 226 213 209 212
175 184 173 186 302 249 276 175 137 212 329 232 193 255 261 249 223 220 204 189 265 268 264 268 267 252 231 230 230 233 237 238 244 225 215 214 219 222 224 224 221 220 217 214 215 214 211 210 209 214 221 222 222 224 225 227 228 229 228 227 222 223 227 233 235 235 229 222 217 213 213 212 208 210 212 204 197 209 214 215 214 193 189 199 195 197 190 193 200 212 219 213 203 216 219 219 227
197 184 182 123 166 200 213 92 84 239 188 218 209 226 243 250 255 260 221 169 233 266 273 265 259 255 246 234 233 227 230 243 241 231 247 239 231 225 221 218 220 217 216 214 213 209 210 211 211 215 218 221 220 223 222 223 223 223 226 230 238 233 231 229 223 225 219 220 224 220 213 211 210 205 207 197 205 218 227 226 217 206 208 206 213 195 206 209 209 205 210 210 197 207 214 207 176
129 109 163 174 176 122 22 76 55 290 207 225 228 246 269 271 262 262 266 170 233 251 260 253 250 251 250 244 236 232 227 240 79 273 248 241 240 235 226 222 220 217 216 212 208 210 210 209 205 214 210 215 219 218 217 218 220 223 222 221 222 228 234 238 237 227 221 220 219 222 222 213 211 204 209 211 210 218 225 218 202 192 204 216 215 206 204 206 206 205 207 198 203 209 212 180 135
170 174 191 177 231 181 135 126 65 53 237 193 55 258 260 260 264 262 258 249 259 237 234 241 245 241 241 241 248 239 243 229 237 251 233 223 219 201 220 224 216 218 216 210 213 212 210 209 210 211 207 208 215 218 218 218 221 221 222 225 228 227 221 219 230 242 246 243 237 224 222 217 207 207 208 206 212 220 216 216 213 206 187 193 211 215 208 201 182 195 186 207 208 214 219 172 158
111 193 180 195 197 56 122 108 130 58 215 238 135 257 256 252 256 257 239 239 249 242 239 249 252 251 246 241 247 257 259 260 237 249 249 242 214 209 205 210 215 225 220 209 215 210 207 207 212 209 206 204 209 213 217 220 222 223 224 230 229 233 230 228 224 225 223 236 231 222 224 227 225 217 207 213 219 216 216 215 216 204 194 197 208 219 225 207 197 203 198 208 204 213 234 182 183
156 138 170 205 107 184 190 167 163 31 292 340 289 288 275 263 250 253 245 233 255 302 292 269 256 257 255 255 272 284 275 270 260 248 251 225 223 238 213 215 213 204 211 212 207 207 207 210 209 205 206 203 206 208 215 221 222 223 223 232 232 234 239 242 248 248 247 242 237 233 235 233 237 243 234 219 217 218 211 208 203 206 210 205 209 212 222 208 193 197 198 204 202 184 204 208 192
283 228 181 149 155 225 331 134 150 152 182 272 243 261 267 225 250 244 147 103 273 265 264 245 235 241 267 290 281 249 254 257 265 260 248 233 239 233 218 200 177 209 208 208 199 201 203 207 204 201 202 201 204 202 207 217 214 215 215 151 150 179 252 239 237 238 238 241 248 241 239 237 226 221 220 214 215 212 208 210 202 204 209 213 210 209 205 199 193 187 191 196 200 210 209 214 194
181 235 217 191 188 154 107 122 152 188 201 75 336 272 254 135 240 249 309 329 251 156 289 265 239 252 247 263 264 255 240 245 251 257 256 257 260 268 258 227 209 206 206 204 201 204 201 200 200 198 202 200 201 197 200 208 208 210 195 199 208 219 230 223 227 230 231 234 236 238 238 230 227 223 222 218 199 192 200 207 212 212 218 219 212 212 226 222 212 205 199 199 209 210 217 213 208
186 210 178 203 162 133 139 155 206 195 226 86 319 241 260 91 279 173 10 320 289 235 243 273 306 309 281 279 290 283 271 255 244 255 262 254 242 240 216 187 192 199 182 162 192 203 200 199 193 193 196 196 195 198 199 202 205 207 207 209 212 214 222 230 230 237 241 241 241 243 245 248 249 250 251 255 260 257 250 240 233 229 223 217 203 209 217 217 198 194 195 203 210 205 205 224 204
214 58 148 120 137 143 168 160 229 40 54 130 268 338 271 288 258 69 50 274 266 267 192 260 3 349 341 321 317 305 293 268 265 263 256 242 240 229 171 97 176 115 103 157 170 179 187 190 185 188 191 189 186 195 197 200 201 204 207 211 215 223 227 239 237 239 239 247 245 244 246 250 248 245 248 250 251 253 250 245 233 227 221 212 198 209 214 216 211 205 202 204 209 209 210 224 216
249 99 288 137 149 128 144 157 121 44 282 222 143 294 269 246 262 102 2 271 241 212 152 104 62 27 14 360 354 340 323 306 255 214 140 122 139 142 134 105 51 64 78 122 140 156 167 168 175 178 181 181 182 195 196 199 203 205 207 211 219 227 234 238 243 244 239 239 243 245 245 245 245 243 239 241 235 231 231 235 223 217 222 226 212 216 217 213 210 206 204 205 208 213 210 214 221
170 132 95 99 90 71 77 128 116 156 217 245 158 328 240 270 193 248 58 295 264 206 130 117 79 41 6 2 13 19 28 44 125 290 328 82 86 71 50 57 77 49 43 42 60 97 123 140 155 163 171 179 183 194 197 199 203 206 209 214 219 226 228 240 245 241 243 244 243 243 242 243 245 243 239 239 242 240 241 241 250 244 232 221 202 208 214 215 216 216 210 202 204 212 213 211 216
127 185 110 91 61 60 64 45 47 159 240 232 60 343 279 290 201 222 176 214 233 112 129 134 149 163 113 59 19 14 19 28 47 84 88 84 64 74 100 96 86 80 65 78 88 100 115 137 148 151 150 167 179 188 195 199 204 210 216 220 224 232 236 239 239 236 227 227 241 245 243 247 247 245 245 245 242 245 245 246 245 246 252 261 243 221 219 218 219 217 211 210 213 213 215 214 224
148 151 132 112 64 110 96 71 304 220 239 81 351 349 289 216 248 233 251 8 233 173 154 148 137 114 89 43 23 20 17 19 30 104 102 109 110 104 115 106 104 97 94 88 84 92 113 125 139 129 140 153 158 166 187 196 202 213 222 225 230 236 240 240 243 247 238 234 235 241 241 244 244 247 248 249 248 246 248 250 249 253 252 249 248 238 224 217 222 218 219 218 219 216 216 221 227
179 145 158 156 153 151 191 184 214 210 239 60 360 256 224 238 249 354 292 260 231 242 170 142 138 127 101 42 16 6 353 351 82 90 106 106 112 122 116 118 118 109 102 105 104 113 122 135 152 147 146 161 160 172 183 192 197 207 215 224 235 245 247 247 251 253 252 247 242 237 236 241 246 244 242 244 246 243 246 248 248 249 250 252 256 259 258 251 233 220 220 222 224 220 208 208 217
188 171 167 165 161 177 214 182 349 333 24 346 77 6 271 309 283 249 248 228 208 213 248 306 261 279 18 342 342 350 2 13 66 83 85 97 101 97 91 95 92 91 84 84 89 94 98 97 93 116 114 118 131 153 176 186 198 204 210 217 224 228 237 244 248 254 254 256 258 248 245 248 252 255 260 248 241 242 240 240 243 245 247 251 248 249 250 251 250 244 235 230 227 225 216 207 222
199 12 182 197 174 161 194 173 204 219 108 114 236 186 236 169 207 44 295 45 46 273 288 286 278 284 308 301 291 285 255 115 106 105 103 106 99 93 95 87 85 83 86 76 69 74 85 103 113 122 126 121 145 165 184 203 202 203 208 220 221 223 229 235 246 256 261 257 257 258 250 246 245 246 242 249 240 232 250 252 248 248 246 243 243 242 242 244 246 248 249 245 242 223 221 224 228
28 229 23 186 211 58 220 58 348 117 146 152 195 235 302 243 37 246 229 270 272 209 261 263 267 165 177 260 182 135 130 125 122 125 117 103 103 115 115 114 109 109 103 101 96 104 109 103 103 95 99 99 96 110 154 228 266 238 250 243 246 242 251 255 259 258 265 271 273 272 271 262 261 263 260 257 255 247 248 248 253 254 256 256 253 253 252 251 249 250 250 247 245 226 224 230 235
184 140 205 160 14 100 113 92 77 332 336 246 139 265 253 267 280 237 123 150 208 147 200 217 251 209 137 189 152 143 143 131 133 128 121 126 133 120 111 118 119 112 101 90 86 78 88 105 114 111 105 107 103 91 95 108 98 241 231 255 252 241 235 245 258 278 286 281 275 274 274 279 282 276 272 270 262 251 248 251 254 251 254 259 256 253 253 254 255 254 253 253 253 242 227 234 236
105 221 182 121 227 61 132 204 95 255 245 249 117 229 245 172 252 74 136 176 185 185 184 202 205 165 164 165 161 151 149 134 115 100 95 115 120 119 112 95 87 89 98 96 85 74 62 58 60 91 87 83 73 75 77 85 85 108 119 175 196 239 281 289 292 296 295 284 281 280 284 282 281 286 286 281 279 275 274 262 258 260 260 261 258 256 254 253 254 255 255 255 255 253 249 244 239
292 43 132 166 165 205 190 132 200 178 222 248 207 274 281 228 228 97 186 188 201 205 183 179 186 182 166 159 160 139 128 132 143 147 150 141 105 89 91 92 89 87 82 84 89 83 76 69 60 63 67 63 60 56 64 71 53 51 34 20 10 8 3 349 330 313 295 275 278 290 291 294 299 299 293 291 287 282 274 270 267 267 266 263 261 259 257 256 253 257 258 259 256 252 251 254 252
71 160 120 351 295 296 161 201 25 213 236 141 246 120 251 186 218 210 226 194 200 190 181 201 184 179 164 164 165 155 155 152 151 150 140 113 91 77 73 76 73 70 75 75 77 77 70 69 67 69 74 69 58 48 41 49 41 40 33 28 32 16 3 346 339 326 300 294 307 309 307 300 298 301 296 294 285 278 273 271 270 268 268 267 266 264 262 259 259 258 260 260 259 255 253 252 256
129 169 172 166 57 318 352 38 179 219 205 203 267 247 230 199 210 205 213 186 197 184 189 186 183 178 170 160 160 153 150 154 154 148 131 110 99 89 79 76 84 87 79 71 67 70 67 63 60 53 57 50 49 36 32 32 33 42 37 35 24 15 5 349 333 311 291 293 322 318 311 311 308 295 294 287 283 277 277 276 276 274 273 274 274 274 270 266 262 265 264 264 265 261 257 257 256
207 170 184 183 144 151 177 215 82 349 215 220 180 249 284 252 130 212 218 125 198 213 192 183 170 171 166 148 146 139 146 145 141 130 115 107 100 93 91 84 71 75 64 64 61 69 61 57 52 45 57 47 42 36 29 25 38 42 43 34 29 20 5 355 316 290 276 293 341 342 333 313 298 298 301 294 288 288 284 285 284 283 282 281 281 280 278 270 267 268 268 265 265 262 260 259 257